FW4751 Weather Reports


time (UTC)temp
C
wind
direction
speed
KPH
gust
KPH
rain 1hr
cm
rain 24hr
cm
rain mn
cm
humidity
%
barometer
mb
20260510180543 17 45 3.2 9.7 0.00 0.00 0.00 72 1016.5
20260510180004 17 68 3.2 8.0 0.00 0.00 0.00 71 1016.6
20260510175543 18 68 3.2 8.0 0.00 0.00 0.00 72 1016.5
20260510175023 17 45 3.2 8.0 0.00 0.00 0.00 73 1016.3
20260510174503 17 90 3.2 8.0 0.00 0.00 0.00 72 1016.4
20260510174003 17 45 3.2 9.7 0.00 0.00 0.00 73 1016.5
20260510173503 17 45 1.6 8.0 0.00 0.00 0.00 74 1016.5
20260510173004 17 45 3.2 8.0 0.00 0.00 0.00 74 1016.4
20260510172503 17 45 3.2 8.0 0.00 0.00 0.00 74 1016.5
20260510172003 16 45 3.2 9.7 0.00 0.00 0.00 75 1016.6
20260510171503 16 68 3.2 6.4 0.00 0.00 0.00 75 1016.6
20260510171003 16 45 3.2 6.4 0.00 0.00 0.00 75 1016.7
20260510170503 16 68 3.2 8.0 0.00 0.00 0.00 76 1016.6
20260510170003 16 45 3.2 9.7 0.00 0.00 0.00 75 1016.6
20260510165503 16 45 3.2 6.4 0.00 0.00 0.00 74 1016.6
20260510165003 16 45 3.2 8.0 0.00 0.00 0.00 74 1016.7
20260510164503 17 68 1.6 6.4 0.00 0.00 0.00 73 1016.5
20260510164003 17 113 1.6 6.4 0.00 0.00 0.00 74 1016.4
20260510163503 16 45 3.2 8.0 0.00 0.00 0.00 74 1016.4
20260510163003 16 113 3.2 8.0 0.00 0.00 0.00 73 1016.5
20260510162504 16 113 3.2 6.4 0.00 0.00 0.00 75 1016.5
20260510162003 16 338 3.2 4.8 0.00 0.00 0.00 75 1016.4
20260510161503 16 90 1.6 3.2 0.00 0.00 0.00 76 1016.4
20260510161003 16 45 1.6 4.8 0.00 0.00 0.00 75 1016.4
20260510160503 16 90 1.6 4.8 0.00 0.00 0.00 77 1016.3
20260510160003 15 135 1.6 4.8 0.00 0.00 0.00 78 1016.3
20260510155503 15 225 1.6 3.2 0.00 0.00 0.00 80 1016.3
20260510155003 14 45 1.6 3.2 0.00 0.00 0.00 81 1016.3
20260510154503 13 0.0 1.6 0.00 0.00 0.00 81 1016.2
20260510154003 13 0.0 3.2 0.00 0.00 0.00 82 1016.4
20260510153503 13 0 1.6 3.2 0.00 0.00 0.00 83 1016.3
20260510153003 13 338 1.6 4.8 0.00 0.00 0.00 83 1016.3
20260510152523 13 0 1.6 3.2 0.00 0.00 0.00 83 1016.2
20260510152005 13 315 1.6 3.2 0.00 0.00 0.00 83 1016.2
20260510151505 13 293 1.6 3.2 0.00 0.00 0.00 84 1016.2
20260510151005 13 0 1.6 3.2 0.00 0.00 0.00 84 1016.2
20260510150505 13 293 1.6 4.8 0.00 0.00 0.00 85 1016.2
20260510150005 13 315 1.6 3.2 0.00 0.00 0.00 85 1016.3
20260510145505 13 315 1.6 3.2 0.00 0.00 0.00 85 1016.2
20260510145006 13 293 1.6 4.8 0.00 0.00 0.00 85 1016.1
20260510144505 12 293 1.6 4.8 0.00 0.00 0.00 85 1016.1
20260510144005 12 293 1.6 3.2 0.00 0.00 0.00 85 1016.1
20260510143505 12 315 1.6 4.8 0.00 0.00 0.00 85 1016.0
20260510143006 12 315 1.6 3.2 0.00 0.00 0.00 86 1016.1
20260510142505 12 315 1.6 6.4 0.00 0.00 0.00 85 1016.1
20260510142025 12 315 1.6 6.4 0.00 0.00 0.00 86 1016.0
20260510141505 12 315 1.6 4.8 0.00 0.00 0.00 86 1016.0
20260510141005 12 315 1.6 4.8 0.00 0.00 0.00 86 1016.0
20260510140504 12 315 1.6 4.8 0.00 0.00 0.00 86 1015.9
20260510140005 12 315 1.6 4.8 0.00 0.00 0.00 86 1015.8
20260510135546 12 315 1.6 3.2 0.00 0.00 0.00 86 1015.9
20260510135026 12 315 1.6 4.8 0.00 0.00 0.00 86 1015.8
20260510134505 12 315 1.6 4.8 0.00 0.00 0.00 86 1015.7
20260510134005 12 315 1.6 4.8 0.00 0.00 0.00 86 1015.7
20260510133505 12 315 1.6 4.8 0.00 0.00 0.00 86 1015.6
20260510133005 12 315 1.6 4.8 0.00 0.00 0.00 86 1015.7
20260510132505 12 315 1.6 4.8 0.00 0.00 0.00 86 1015.6
20260510132005 12 315 1.6 3.2 0.00 0.00 0.00 86 1015.5
20260510131505 12 315 1.6 4.8 0.00 0.00 0.00 86 1015.4
20260510131005 12 315 1.6 4.8 0.00 0.00 0.00 86 1015.5
20260510130525 12 315 1.6 4.8 0.00 0.00 0.00 86 1015.4
20260510130005 12 315 1.6 4.8 0.00 0.00 0.00 86 1015.4
20260510125504 12 315 1.6 4.8 0.00 0.00 0.00 86 1015.4
20260510125025 12 315 1.6 4.8 0.00 0.00 0.00 86 1015.5
20260510124505 12 315 1.6 3.2 0.00 0.00 0.00 86 1015.5
20260510124004 12 315 1.6 4.8 0.00 0.00 0.00 86 1015.5
20260510123505 12 315 1.6 4.8 0.00 0.00 0.00 86 1015.5
20260510123004 12 338 1.6 4.8 0.00 0.00 0.00 86 1015.6
20260510122504 12 315 3.2 6.4 0.00 0.00 0.00 86 1015.5
20260510122004 12 338 1.6 4.8 0.00 0.00 0.00 86 1015.4
20260510121504 12 338 1.6 3.2 0.00 0.00 0.00 86 1015.5
20260510121004 12 315 1.6 4.8 0.00 0.00 0.00 86 1015.5
20260510120504 12 315 1.6 3.2 0.00 0.00 0.00 86 1015.6
20260510120004 12 338 1.6 4.8 0.00 0.00 0.00 86 1015.5
20260510115504 12 315 1.6 4.8 0.00 0.00 0.00 86 1015.5
20260510115004 12 338 1.6 6.4 0.00 0.00 0.00 86 1015.6
20260510114504 12 338 1.6 4.8 0.00 0.00 0.00 86 1015.5
20260510114004 12 338 1.6 4.8 0.00 0.00 0.00 86 1015.5
20260510113505 12 338 1.6 4.8 0.00 0.00 0.00 86 1015.5
20260510113005 12 315 3.2 8.0 0.00 0.00 0.00 86 1015.6
20260510112524 12 315 1.6 6.4 0.00 0.00 0.00 86 1015.5
20260510112004 12 338 1.6 6.4 0.00 0.00 0.00 86 1015.5
20260510111504 12 315 1.6 6.4 0.00 0.00 0.00 86 1015.5
20260510111004 12 315 1.6 4.8 0.00 0.00 0.00 86 1015.6
20260510110504 12 338 1.6 4.8 0.00 0.00 0.00 87 1015.6
20260510110004 12 315 1.6 6.4 0.00 0.00 0.00 87 1015.5
20260510105504 12 315 1.6 4.8 0.00 0.00 0.00 87 1015.5
20260510105004 12 315 1.6 4.8 0.00 0.00 0.00 87 1015.5
20260510104504 12 315 1.6 4.8 0.00 0.00 0.00 87 1015.4
20260510104024 12 315 1.6 4.8 0.00 0.00 0.00 87 1015.5
20260510103504 12 338 1.6 4.8 0.00 0.00 0.00 87 1015.5
20260510103004 12 315 1.6 6.4 0.00 0.00 0.00 87 1015.5
20260510102505 12 315 1.6 3.2 0.00 0.00 0.00 88 1015.6
20260510102004 12 315 1.6 4.8 0.00 0.00 0.00 88 1015.6
20260510101525 12 315 1.6 4.8 0.00 0.00 0.00 88 1015.6
20260510101004 12 338 1.6 6.4 0.00 0.00 0.00 88 1015.6
20260510100504 12 315 1.6 4.8 0.00 0.00 0.00 89 1015.6
20260510100004 12 315 1.6 4.8 0.00 0.00 0.00 89 1015.5
20260510095504 12 338 1.6 6.4 0.00 0.00 0.00 89 1015.5
20260510095004 12 315 1.6 4.8 0.00 0.00 0.00 89 1015.5
20260510094504 12 315 1.6 4.8 0.00 0.00 0.00 89 1015.5
20260510094004 12 45 1.6 4.8 0.00 0.00 0.00 90 1015.5
20260510093504 12 0 1.6 4.8 0.00 0.00 0.00 90 1015.5
20260510093004 12 315 1.6 3.2 0.00 0.00 0.00 90 1015.6
20260510092504 12 293 1.6 3.2 0.00 0.00 0.00 90 1015.5
20260510092004 12 0.0 3.2 0.00 0.00 0.00 90 1015.6
20260510091504 12 315 1.6 3.2 0.00 0.00 0.00 90 1015.6
20260510091044 12 315 1.6 3.2 0.00 0.00 0.00 90 1015.5
20260510090504 11 0 1.6 3.2 0.00 0.00 0.00 90 1015.5
20260510090004 11 338 1.6 3.2 0.00 0.00 0.00 89 1015.5
20260510085504 11 338 1.6 3.2 0.00 0.00 0.00 89 1015.5
20260510085004 11 0.0 3.2 0.00 0.00 0.00 89 1015.6
20260510084504 11 338 1.6 3.2 0.00 0.00 0.00 88 1015.5
20260510084004 11 0.0 3.2 0.00 0.00 0.00 88 1015.5
20260510083504 11 0.0 1.6 0.00 0.00 0.00 88 1015.6
20260510083004 11 315 1.6 3.2 0.00 0.00 0.00 88 1015.5
20260510082504 11 315 1.6 3.2 0.00 0.00 0.00 87 1015.5
20260510082004 11 0.0 1.6 0.00 0.00 0.00 87 1015.4
20260510081503 11 0.0 1.6 0.00 0.00 0.00 86 1015.5
20260510081024 11 0.0 3.2 0.00 0.00 0.00 86 1015.4
20260510080524 11 0.0 1.6 0.00 0.00 0.00 86 1015.5
20260510080004 11 0.0 1.6 0.00 0.00 0.00 86 1015.5
20260510075624 11 0.0 1.6 0.00 0.00 0.00 86 1015.5
20260510075024 11 0.0 1.6 0.00 0.00 0.00 86 1015.6
20260510074503 11 0.0 1.6 0.00 0.00 0.00 85 1015.6
20260510074004 11 0.0 1.6 0.00 0.00 0.00 85 1015.5
20260510073504 11 0.0 1.6 0.00 0.00 0.00 85 1015.6
20260510073004 12 0.0 1.6 0.00 0.00 0.00 85 1015.5
20260510072504 12 0.0 1.6 0.00 0.00 0.00 85 1015.6
20260510072004 12 0.0 1.6 0.00 0.00 0.00 84 1015.5
20260510071504 12 0.0 1.6 0.00 0.00 0.00 84 1015.6
20260510071005 12 0.0 1.6 0.00 0.00 0.00 84 1015.6
20260510070544 12 0.0 1.6 0.00 0.00 0.00 84 1015.6
20260510070005 12 0.0 1.6 0.00 0.00 0.00 84 1015.6
20260510065504 12 0.0 1.6 0.00 0.00 0.00 84 1015.6
20260510065004 12 0.0 1.6 0.00 0.00 0.00 84 1015.5
20260510064504 12 0.0 1.6 0.00 0.00 0.00 84 1015.5
20260510064004 12 0.0 1.6 0.00 0.00 0.00 84 1015.6
20260510063504 12 0.0 1.6 0.00 0.00 0.00 84 1015.5
20260510063004 12 0.0 1.6 0.00 0.00 0.00 84 1015.6
20260510062504 12 0 1.6 1.6 0.00 0.00 0.00 84 1015.5
20260510062004 13 0.0 1.6 0.00 0.00 0.00 84 1015.6
20260510061504 13 0.0 3.2 0.00 0.00 0.00 83 1015.5
20260510061003 13 0.0 3.2 0.00 0.00 0.00 83 1015.5
20260510060504 13 0.0 3.2 0.00 0.00 0.00 83 1015.6
20260510060004 13 0.0 1.6 0.00 0.00 0.00 83 1015.5
20260510055544 13 0.0 1.6 0.00 0.00 0.00 83 1015.5
20260510055004 13 0.0 3.2 0.00 0.00 0.00 83 1015.5
20260510054504 13 0.0 3.2 0.00 0.00 0.00 83 1015.6
20260510054003 13 45 1.6 3.2 0.00 0.00 0.00 83 1015.6
20260510053503 13 45 1.6 4.8 0.00 0.00 0.00 82 1015.6
20260510053004 13 45 1.6 4.8 0.00 0.00 0.00 82 1015.6
20260510052503 13 0 1.6 3.2 0.00 0.00 0.00 82 1015.6
20260510052105 13 45 1.6 4.8 0.00 0.00 0.00 82 1015.6
20260510051504 13 45 1.6 4.8 0.00 0.00 0.00 81 1015.5
20260510051004 13 45 1.6 4.8 0.00 0.00 0.00 81 1015.5
20260510050503 13 45 1.6 6.4 0.00 0.00 0.00 81 1015.5
20260510050004 13 23 1.6 4.8 0.00 0.00 0.00 80 1015.5
20260510045504 13 45 1.6 4.8 0.00 0.00 0.00 80 1015.5
20260510045004 14 45 1.6 4.8 0.00 0.00 0.00 80 1015.4
20260510044503 14 45 1.6 6.4 0.00 0.00 0.00 80 1015.4
20260510044003 14 45 3.2 8.0 0.00 0.00 0.00 79 1015.3
20260510043503 14 45 3.2 6.4 0.00 0.00 0.00 79 1015.3
20260510043003 14 45 3.2 8.0 0.00 0.00 0.00 79 1015.2
20260510042523 14 45 3.2 8.0 0.00 0.00 0.00 78 1015.3
20260510042003 14 45 1.6 4.8 0.00 0.00 0.00 78 1015.2
20260510041504 14 45 1.6 4.8 0.00 0.00 0.00 78 1015.2
20260510041003 15 45 1.6 4.8 0.00 0.00 0.00 78 1015.1
20260510040504 15 45 1.6 4.8 0.00 0.00 0.00 77 1015.0
20260510040003 15 45 1.6 4.8 0.00 0.00 0.00 77 1015.0
20260510035503 15 45 1.6 4.8 0.00 0.00 0.00 76 1015.1
20260510035024 15 45 1.6 6.4 0.00 0.00 0.00 76 1015.0
20260510034523 15 45 1.6 6.4 0.00 0.00 0.00 76 1015.0
20260510034003 15 68 1.6 4.8 0.00 0.00 0.00 75 1014.9
20260510033503 15 68 3.2 8.0 0.00 0.00 0.00 75 1014.9
20260510033024 15 68 1.6 8.0 0.00 0.00 0.00 74 1014.9
20260510032503 15 68 1.6 4.8 0.00 0.00 0.00 74 1014.8
20260510032003 15 45 3.2 6.4 0.00 0.00 0.00 73 1014.6
20260510031503 16 45 3.2 8.0 0.00 0.00 0.00 73 1014.5
20260510031003 16 45 1.6 6.4 0.00 0.00 0.00 72 1014.5
20260510030503 16 45 1.6 4.8 0.00 0.00 0.00 72 1014.5
20260510030003 16 45 1.6 6.4 0.00 0.00 0.00 72 1014.4
20260510025503 16 45 1.6 6.4 0.00 0.00 0.00 71 1014.3
20260510025003 16 45 1.6 4.8 0.00 0.00 0.00 71 1014.2
20260510024503 16 45 3.2 6.4 0.00 0.00 0.00 71 1014.2
20260510024003 16 45 3.2 4.8 0.00 0.00 0.00 70 1014.3
20260510023503 17 45 3.2 8.0 0.00 0.00 0.00 70 1014.2
20260510023003 17 45 3.2 8.0 0.00 0.00 0.00 69 1014.1
20260510022503 17 68 1.6 9.7 0.00 0.00 0.00 69 1014.1
20260510022003 17 338 3.2 9.7 0.00 0.00 0.00 68 1014.0
20260510021503 17 45 3.2 9.7 0.00 0.00 0.00 68 1014.2
20260510021023 17 338 4.8 16.1 0.00 0.00 0.00 67 1014.1
20260510020503 17 45 4.8 14.5 0.00 0.00 0.00 67 1014.0
20260510020003 18 45 4.8 12.9 0.00 0.00 0.00 66 1014.2
20260510015503 18 45 4.8 11.3 0.00 0.00 0.00 66 1014.0
20260510015003 18 338 4.8 12.9 0.00 0.00 0.00 65 1014.1
20260510014644 18 45 3.2 8.0 0.00 0.00 0.00 66 1014.1
20260510014003 18 45 4.8 12.9 0.00 0.00 0.00 66 1014.0
20260510013503 18 45 4.8 14.5 0.00 0.00 0.00 65 1014.1
20260510013003 18 45 4.8 12.9 0.00 0.00 0.00 65 1013.9
20260510012503 18 338 6.4 12.9 0.00 0.00 0.00 64 1014.1
20260510012003 19 0 6.4 14.5 0.00 0.00 0.00 63 1014.0
20260510011503 19 45 6.4 12.9 0.00 0.00 0.00 63 1014.0
20260510011003 20 0 4.8 12.9 0.00 0.00 0.00 63 1014.0
20260510010503 20 45 4.8 14.5 0.00 0.00 0.00 62 1013.9
20260510010004 20 338 6.4 12.9 0.00 0.00 0.00 62 1014.0
20260510005504 20 338 4.8 11.3 0.00 0.00 0.00 61 1013.9
20260510005005 20 45 3.2 14.5 0.00 0.00 0.00 61 1013.9
20260510004505 20 338 4.8 14.5 0.00 0.00 0.00 61 1013.9
20260510004025 20 45 4.8 11.3 0.00 0.00 0.00 61 1013.9
20260510003505 20 45 4.8 11.3 0.00 0.00 0.00 61 1013.9
20260510003005 20 0 6.4 12.9 0.00 0.00 0.00 60 1013.9
20260510002504 20 68 4.8 9.7 0.00 0.00 0.00 60 1013.9
20260510002010 20 45 6.4 12.9 0.00 0.00 0.00 61 1013.8
20260510001504 20 45 4.8 12.9 0.00 0.00 0.00 61 1013.9
20260510001005 20 45 4.8 12.9 0.00 0.00 0.00 61 1013.9
20260510000525 21 45 6.4 14.5 0.00 0.00 0.00 61 1013.9
20260510000005 21 338 4.8 14.5 0.00 0.00 0.00 60 1014.0
20260509235505 21 338 4.8 11.3 0.00 0.00 0.00 61 1014.0
20260509235005 21 338 6.4 14.5 0.00 0.00 0.00 60 1013.9
20260509234505 21 338 4.8 12.9 0.00 0.00 0.00 61 1014.1
20260509234024 21 45 4.8 11.3 0.00 0.00 0.00 61 1014.0
20260509233505 21 0 8.0 17.7 0.00 0.00 0.00 60 1013.9
20260509233024 21 338 6.4 16.1 0.00 0.00 0.00 59 1013.9
20260509232505 21 45 6.4 14.5 0.00 0.00 0.00 60 1013.8
20260509232046 21 45 8.0 16.1 0.00 0.00 0.00 58 1013.9
20260509231505 22 338 6.4 17.7 0.00 0.00 0.00 57 1013.9
20260509231005 22 338 4.8 17.7 0.00 0.00 0.00 57 1013.9
20260509230504 22 338 4.8 16.1 0.00 0.00 0.00 57 1013.9
20260509230004 21 338 4.8 14.5 0.00 0.00 0.00 59 1014.0
20260509225504 21 338 6.4 17.7 0.00 0.00 0.00 58 1014.2
20260509225004 22 0 8.0 14.5 0.00 0.00 0.00 57 1014.2
20260509224505 22 338 6.4 20.9 0.00 0.00 0.00 56 1014.2
20260509224105 22 45 4.8 14.5 0.00 0.00 0.00 56 1014.3
20260509223504 22 338 6.4 16.1 0.00 0.00 0.00 55 1014.6
20260509223005 23 45 6.4 16.1 0.00 0.00 0.00 55 1014.4
20260509222524 23 45 4.8 14.5 0.00 0.00 0.00 54 1014.5
20260509222024 23 45 3.2 9.7 0.00 0.00 0.00 55 1014.5
20260509221524 23 338 4.8 14.5 0.00 0.00 0.00 55 1014.6
20260509221004 22 315 4.8 11.3 0.00 0.00 0.00 56 1014.6
20260509220504 22 338 4.8 14.5 0.00 0.00 0.00 57 1014.6
20260509220005 22 315 4.8 14.5 0.00 0.00 0.00 57 1014.7
20260509215526 22 338 3.2 16.1 0.00 0.00 0.00 59 1014.7
20260509215004 22 45 8.0 20.9 0.00 0.00 0.00 60 1014.7
20260509214504 22 45 6.4 14.5 0.00 0.00 0.00 62 1014.7
20260509214005 22 45 6.4 14.5 0.00 0.00 0.00 63 1014.7
20260509213505 21 338 8.0 16.1 0.00 0.00 0.00 62 1014.8
20260509213005 21 45 8.0 17.7 0.00 0.00 0.00 62 1014.8
20260509212504 21 45 6.4 16.1 0.00 0.00 0.00 63 1014.8
20260509212024 21 45 6.4 17.7 0.00 0.00 0.00 64 1014.9
20260509211524 21 45 8.0 16.1 0.00 0.00 0.00 65 1015.0
20260509211004 21 45 6.4 17.7 0.00 0.00 0.00 65 1015.1
20260509210525 21 45 6.4 12.9 0.00 0.00 0.00 65 1015.2
20260509210004 21 45 6.4 16.1 0.00 0.00 0.00 66 1015.2
20260509205504 21 45 6.4 14.5 0.00 0.00 0.00 66 1015.1
20260509205024 21 45 4.8 12.9 0.00 0.00 0.00 66 1015.3
20260509204504 20 45 6.4 12.9 0.00 0.00 0.00 67 1015.3
20260509204004 20 45 6.4 14.5 0.00 0.00 0.00 67 1015.3
20260509203524 20 45 6.4 16.1 0.00 0.00 0.00 67 1015.4
20260509203004 20 45 4.8 11.3 0.00 0.00 0.00 67 1015.4
20260509202504 20 45 6.4 12.9 0.00 0.00 0.00 68 1015.4
20260509202004 20 45 4.8 14.5 0.00 0.00 0.00 68 1015.5
20260509201504 20 45 4.8 11.3 0.00 0.00 0.00 68 1015.5
20260509201024 20 68 4.8 9.7 0.00 0.00 0.00 69 1015.5
20260509200504 20 68 4.8 11.3 0.00 0.00 0.00 70 1015.7
20260509200004 20 68 4.8 11.3 0.00 0.00 0.00 70 1015.8
20260509195504 20 45 4.8 12.9 0.00 0.00 0.00 70 1015.8
20260509195024 19 68 4.8 11.3 0.00 0.00 0.00 70 1015.8
20260509194504 19 68 4.8 11.3 0.00 0.00 0.00 71 1015.7
20260509194004 19 45 6.4 12.9 0.00 0.00 0.00 71 1015.8
20260509193504 19 68 4.8 9.7 0.00 0.00 0.00 72 1015.7
20260509193004 19 45 4.8 8.0 0.00 0.00 0.00 72 1015.9
20260509192544 19 45 4.8 11.3 0.00 0.00 0.00 72 1015.9
20260509192004 19 45 6.4 14.5 0.00 0.00 0.00 71 1016.0
20260509191524 19 45 4.8 9.7 0.00 0.00 0.00 71 1016.0
20260509191004 18 45 4.8 9.7 0.00 0.00 0.00 71 1016.1
20260509190504 18 45 4.8 9.7 0.00 0.00 0.00 71 1016.1
20260509190024 18 68 3.2 9.7 0.00 0.00 0.00 71 1016.2
20260509185524 18 45 4.8 9.7 0.00 0.00 0.00 70 1016.1
20260509185004 18 45 4.8 11.3 0.00 0.00 0.00 70 1016.1
20260509184525 19 68 4.8 9.7 0.00 0.00 0.00 69 1016.2
20260509184004 20 45 4.8 11.3 0.00 0.00 0.00 66 1016.3
20260509183504 20 45 4.8 9.7 0.00 0.00 0.00 65 1016.3
20260509183024 20 45 3.2 9.7 0.00 0.00 0.00 65 1016.2
20260509182504 20 45 3.2 8.0 0.00 0.00 0.00 67 1016.2
20260509182003 20 68 1.6 8.0 0.00 0.00 0.00 68 1016.1
20260509181504 20 113 3.2 6.4 0.00 0.00 0.00 68 1016.2
20260509181004 19 135 1.6 4.8 0.00 0.00 0.00 68 1016.2